Grand Forks AFB, ND

8:09 PM CST on December 17, 2017 (GMT -0600)
Grand Forks Air Force Base

Weather History for KRDR - November, 2012

Change the Weather History Date:

Thursday, November 8, 2012

  Actual Average Record
Temperature  
Mean Temperature 35 °F -  
Max Temperature 41 °F 36 °F 73 °F (1999)
Min Temperature 29 °F 19 °F -11 °F (2003)
Degree Days  
Heating Degree Days 30    
Moisture  
Dew Point 32 °F    
Average Humidity 80    
Maximum Humidity 87    
Minimum Humidity 72    
Precipitation  
Precipitation 0.00 in - - ()
Sea Level Pressure  
Sea Level Pressure 30.00 in    
Wind  
Wind Speed 13 mph (North)    
Max Wind Speed 24 mph    
Max Gust Speed 30 mph    
Visibility 10 miles    
Events Rain    
Averages and records for this station are not official NWS values.
T = Trace of Precipitation, MM = Missing Value Source: NWS Daily Summary

Daily Weather History Graph

Daily Weather History Graph

Search for Another Location

Airport or City:

Trip Planner

Search our weather history database for the weather conditions in past years. The results will help you decide how hot, cold, wet, or windy it might be!

Date:

Astronomy

Nov. 08, 2012 Rise Set
Actual Time 7:26 AM CST 5:00 PM CST
Civil Twilight 6:52 AM CST 5:33 PM CST
Nautical Twilight 6:15 AM CST 6:10 PM CST
Astronomical Twilight 5:39 AM CST 6:46 PM CST
Moon 12:57 AM CST (11/8) 2:04 PM CST (11/8)
Length of Visible Light 10h 40m
Length of Day
9h 34m
Waning Crescent, 32% of the Moon is Illuminated
Nov 8
Waning Crescent
Nov 13
New
Nov 20
First Quarter
Nov 28
Full
Dec 6
Last Quarter

Hourly Weather History & Observations

Time (CST) Temp. Windchill Dew Point Humidity Pressure Visibility Wind Dir Wind Speed Gust Speed Precip Events Conditions
12:55 AM 40.8 °F 35.0 °F 34.9 °F 79% 29.79 in 10.0 mi South 9.2 mph - N/A   Partly Cloudy
1:55 AM 39.2 °F 35.9 °F 34.2 °F 82% 29.79 in 10.0 mi South 4.6 mph - N/A   Clear
2:55 AM 39.6 °F 34.0 °F 34.3 °F 82% 29.80 in 10.0 mi SSW 8.1 mph - N/A   Mostly Cloudy
3:55 AM 40.3 °F 33.4 °F 34.0 °F 78% 29.81 in 10.0 mi SSW 11.5 mph - N/A   Overcast
4:55 AM 39.7 °F 32.7 °F 34.0 °F 80% 29.79 in 10.0 mi South 11.5 mph - N/A   Overcast
4:59 AM 39.2 °F 32.5 °F 33.8 °F 81% 29.80 in 10.0 mi SSW 10.4 mph - N/A Rain Light Rain
5:16 AM 39.2 °F 33.6 °F 35.6 °F 87% 29.81 in 10.0 mi SSW 8.1 mph - N/A   Overcast
5:55 AM 40.3 °F 34.9 °F 34.9 °F 81% 29.84 in 10.0 mi WSW 8.1 mph - 0.00 in   Overcast
6:13 AM 41.0 °F 35.8 °F 35.6 °F 81% 29.84 in 10.0 mi West 8.1 mph - N/A Rain Light Rain
6:24 AM 41.0 °F 38.0 °F 35.6 °F 81% 29.85 in 10.0 mi West 4.6 mph - N/A   Mostly Cloudy
6:55 AM 41.7 °F 33.7 °F 36.7 °F 82% 29.85 in 10.0 mi NW 16.1 mph 20.7 mph 0.00 in   Mostly Cloudy
7:21 AM 41.0 °F 32.2 °F 35.6 °F 81% 29.88 in 10.0 mi NNW 18.4 mph 25.3 mph N/A   Mostly Cloudy
7:35 AM 39.2 °F 30.8 °F 35.6 °F 87% 29.89 in 10.0 mi NNW 15.0 mph 21.9 mph N/A   Mostly Cloudy
7:55 AM 39.9 °F 31.4 °F 35.4 °F 84% 29.91 in 10.0 mi NNW 16.1 mph 23.0 mph N/A   Overcast
8:55 AM 39.7 °F 32.3 °F 35.2 °F 84% 29.95 in 10.0 mi NNW 12.7 mph - N/A   Overcast
9:17 AM 39.2 °F 31.6 °F 35.6 °F 87% 29.96 in 10.0 mi North 12.7 mph - N/A   Overcast
9:39 AM 41.0 °F 33.1 °F 35.6 °F 81% 29.98 in 10.0 mi North 15.0 mph - N/A   Overcast
9:55 AM 40.5 °F 31.8 °F 35.4 °F 82% 29.98 in 10.0 mi North 17.3 mph 24.2 mph N/A   Overcast
10:13 AM 39.2 °F 29.6 °F 35.6 °F 87% 30.00 in 10.0 mi North 19.6 mph 25.3 mph N/A   Overcast
10:18 AM 39.2 °F 30.8 °F 35.6 °F 87% 30.00 in 10.0 mi North 15.0 mph 25.3 mph N/A   Overcast
10:47 AM 39.2 °F 30.2 °F 33.8 °F 81% 30.02 in 10.0 mi North 17.3 mph 26.5 mph N/A   Overcast
10:55 AM 38.8 °F 28.8 °F 33.6 °F 82% 30.02 in 10.0 mi North 20.7 mph 26.5 mph N/A   Overcast
11:11 AM 39.2 °F 29.8 °F 33.8 °F 81% 30.03 in 10.0 mi North 18.4 mph 25.3 mph N/A   Overcast
11:55 AM 38.7 °F 29.5 °F 32.5 °F 79% 30.04 in 10.0 mi North 17.3 mph 28.8 mph N/A   Overcast
12:39 PM 39.2 °F 29.0 °F 32.0 °F 75% 30.06 in 10.0 mi NNE 21.9 mph 27.6 mph N/A   Overcast
12:55 PM 38.8 °F 28.0 °F 31.5 °F 75% 30.06 in 10.0 mi NNE 24.2 mph 27.6 mph N/A   Overcast
1:07 PM 39.2 °F 29.8 °F 32.0 °F 75% 30.06 in 10.0 mi North 18.4 mph 24.2 mph N/A   Overcast
1:14 PM 37.4 °F 26.1 °F 32.0 °F 81% 30.06 in 10.0 mi NNE 24.2 mph 29.9 mph N/A   Overcast
1:55 PM 38.3 °F 27.8 °F 30.7 °F 74% 30.08 in 10.0 mi NNE 21.9 mph 28.8 mph N/A   Overcast
2:55 PM 37.6 °F 26.9 °F 29.1 °F 72% 30.10 in 10.0 mi NNE 21.9 mph 28.8 mph N/A   Overcast
3:55 PM 36.7 °F 25.7 °F 28.6 °F 72% 30.12 in 10.0 mi NNE 21.9 mph - N/A   Overcast
4:55 PM 35.1 °F 23.8 °F 27.9 °F 75% 30.14 in 10.0 mi NNE 20.7 mph 24.2 mph N/A   Overcast
5:44 PM 33.8 °F 23.2 °F 28.4 °F 81% 30.17 in 10.0 mi North 17.3 mph - N/A   Overcast
5:55 PM 32.9 °F 22.8 °F 27.7 °F 81% 30.17 in 10.0 mi North 15.0 mph - N/A   Overcast
6:55 PM 31.5 °F 20.9 °F 25.9 °F 80% 30.19 in 10.0 mi NNE 15.0 mph - N/A   Overcast
7:55 PM 30.9 °F 19.4 °F 25.5 °F 80% 30.19 in 10.0 mi NNE 17.3 mph 23.0 mph N/A   Overcast
8:28 PM 30.2 °F 18.5 °F 24.8 °F 80% 30.19 in 10.0 mi NE 17.3 mph - N/A   Overcast
8:55 PM 30.0 °F 19.1 °F 23.7 °F 77% 30.19 in 10.0 mi NNE 15.0 mph - N/A   Overcast
9:55 PM 29.8 °F 19.8 °F 23.0 °F 76% 30.22 in 10.0 mi NNE 12.7 mph - N/A   Overcast
10:55 PM 29.8 °F 18.0 °F 23.0 °F 76% 30.23 in 10.0 mi NNE 17.3 mph 24.2 mph N/A   Overcast
11:55 PM 29.3 °F 19.6 °F 23.2 °F 78% 30.26 in 10.0 mi NNE 11.5 mph - N/A   Overcast